Time,TemperatureF,DewpointF,PressureIn,WindDirection,WindDirectionDegrees,WindSpeedMPH,WindSpeedGustMPH,Humidity,HourlyPrecipIn,Conditions,Clouds,dailyrainin,SolarRadiationWatts/m^2,SoftwareType,DateUTC
2013-07-03 00:00:00,60.1,59.0,30.21,ENE,68,0.0,0.0,96,0.59,,---,1.29,0.00,VWS V14.01,2013-07-03 04:00:00,
2013-07-03 00:01:00,60.1,59.0,30.21,ENE,68,0.0,0.0,96,0.60,,---,1.30,0.00,VWS V14.01,2013-07-03 04:01:00,
2013-07-03 00:03:00,60.1,59.0,30.21,ENE,68,0.0,0.0,96,0.53,,---,0.00,0.00,VWS V14.01,2013-07-03 04:03:00,
2013-07-03 00:04:00,60.0,58.9,30.21,ENE,68,0.0,0.0,96,0.53,,---,0.00,0.00,VWS V14.01,2013-07-03 04:04:00,
2013-07-03 00:09:00,60.0,58.9,30.21,ENE,68,0.0,0.0,96,0.54,,---,0.01,0.00,VWS V14.01,2013-07-03 04:09:00,
2013-07-03 00:14:00,60.0,58.9,30.21,ENE,68,0.0,0.0,96,0.56,,---,0.03,0.00,VWS V14.01,2013-07-03 04:14:00,
2013-07-03 00:19:00,60.0,58.9,30.21,ENE,68,0.0,0.0,96,0.26,,---,0.05,0.00,VWS V14.01,2013-07-03 04:19:00,
2013-07-03 00:24:00,60.0,58.9,30.21,ENE,68,0.0,0.0,96,0.27,,---,0.06,0.00,VWS V14.01,2013-07-03 04:24:00,
2013-07-03 00:29:00,60.0,58.9,30.20,ENE,68,0.0,0.0,96,0.28,,---,0.07,0.00,VWS V14.01,2013-07-03 04:29:00,
2013-07-03 00:31:00,59.8,58.7,30.20,ENE,68,0.0,0.0,96,0.29,,---,0.08,0.00,VWS V14.01,2013-07-03 04:31:00,
2013-07-03 00:32:00,60.0,58.9,30.20,ENE,68,0.0,0.0,96,0.19,,---,0.08,0.00,VWS V14.01,2013-07-03 04:32:00,
2013-07-03 00:37:00,59.8,58.7,30.20,ENE,68,0.0,0.0,96,0.21,,---,0.10,0.00,VWS V14.01,2013-07-03 04:37:00,
2013-07-03 00:42:00,59.8,58.7,30.20,ENE,68,0.0,0.0,96,0.22,,---,0.11,0.00,VWS V14.01,2013-07-03 04:42:00,
2013-07-03 00:45:00,59.8,58.7,30.20,ENE,68,0.0,0.0,96,0.23,,---,0.12,0.00,VWS V14.01,2013-07-03 04:45:00,
2013-07-03 00:46:00,59.8,58.7,30.20,ENE,68,0.0,0.0,96,0.23,,---,0.12,0.00,VWS V14.01,2013-07-03 04:46:00,
2013-07-03 00:51:00,60.0,58.9,30.20,ENE,68,0.0,0.0,96,0.17,,---,0.12,0.00,VWS V14.01,2013-07-03 04:51:00,
2013-07-03 00:53:00,60.0,58.9,30.20,ENE,68,0.0,0.0,96,0.17,,---,0.12,0.00,VWS V14.01,2013-07-03 04:53:00,
2013-07-03 00:58:00,60.0,59.2,30.20,ENE,68,0.0,0.0,97,0.17,,---,0.12,0.00,VWS V14.01,2013-07-03 04:58:00,
2013-07-03 01:03:00,60.0,58.9,30.20,ENE,68,0.0,0.0,96,0.12,,---,0.12,0.00,VWS V14.01,2013-07-03 05:03:00,
2013-07-03 01:07:00,60.0,59.2,30.20,ENE,68,0.0,0.0,97,0.12,,---,0.12,0.00,VWS V14.01,2013-07-03 05:07:00,
2013-07-03 01:12:00,60.0,59.2,30.20,ENE,68,0.0,0.0,97,0.12,,---,0.12,0.00,VWS V14.01,2013-07-03 05:12:00,
2013-07-03 01:17:00,60.0,59.2,30.20,ENE,68,0.0,0.0,97,0.08,,---,0.12,0.00,VWS V14.01,2013-07-03 05:17:00,
2013-07-03 01:19:00,60.0,59.2,30.19,ENE,68,0.0,0.0,97,0.08,,---,0.12,0.00,VWS V14.01,2013-07-03 05:19:00,
2013-07-03 01:24:00,60.0,59.2,30.19,ENE,68,0.0,0.0,97,0.08,,---,0.12,0.00,VWS V14.01,2013-07-03 05:24:00,
2013-07-03 01:29:00,60.0,59.2,30.20,ENE,68,0.0,0.0,97,0.08,,---,0.12,0.00,VWS V14.01,2013-07-03 05:29:00,
2013-07-03 01:34:00,60.0,59.2,30.19,ENE,68,0.0,0.0,97,0.05,,---,0.13,0.00,VWS V14.01,2013-07-03 05:34:00,
2013-07-03 01:39:00,60.0,59.2,30.19,ENE,68,0.0,0.0,97,0.05,,---,0.13,0.00,VWS V14.01,2013-07-03 05:39:00,
2013-07-03 01:44:00,60.0,59.2,30.19,ENE,68,0.0,0.0,97,0.05,,---,0.13,0.00,VWS V14.01,2013-07-03 05:44:00,
2013-07-03 01:49:00,60.0,59.2,30.18,ENE,68,0.0,0.0,97,0.01,,---,0.13,0.00,VWS V14.01,2013-07-03 05:49:00,
2013-07-03 01:54:00,60.0,59.2,30.18,ENE,68,0.0,0.0,97,0.02,,---,0.14,0.00,VWS V14.01,2013-07-03 05:54:00,
2013-07-03 01:57:00,60.0,59.2,30.18,ENE,68,0.0,0.0,97,0.02,,---,0.14,0.00,VWS V14.01,2013-07-03 05:57:00,
2013-07-03 01:58:00,60.0,59.2,30.18,ENE,68,0.0,0.0,97,0.02,,---,0.14,0.00,VWS V14.01,2013-07-03 05:58:00,
2013-07-03 02:02:00,60.0,59.2,30.19,ENE,68,0.0,0.0,97,0.02,,---,0.14,0.00,VWS V14.01,2013-07-03 06:02:00,
2013-07-03 02:07:00,60.0,59.2,30.18,ENE,68,0.0,0.0,97,0.03,,---,0.15,0.00,VWS V14.01,2013-07-03 06:07:00,
2013-07-03 02:12:00,60.0,59.2,30.19,ENE,68,0.0,0.0,97,0.04,,---,0.16,0.00,VWS V14.01,2013-07-03 06:12:00,
2013-07-03 02:13:00,60.0,59.2,30.19,ENE,68,0.0,0.0,97,0.04,,---,0.16,0.00,VWS V14.01,2013-07-03 06:13:00,
2013-07-03 02:16:00,60.0,59.2,30.18,ENE,68,0.0,0.0,97,0.05,,---,0.17,0.00,VWS V14.01,2013-07-03 06:16:00,
2013-07-03 02:19:00,60.0,59.2,30.18,ENE,68,0.0,0.0,97,0.05,,---,0.17,0.00,VWS V14.01,2013-07-03 06:19:00,
2013-07-03 02:22:00,60.0,59.2,30.18,ENE,68,0.0,0.0,97,0.05,,---,0.17,0.00,VWS V14.01,2013-07-03 06:22:00,
2013-07-03 02:24:00,60.0,59.2,30.18,ENE,68,0.0,0.0,97,0.05,,---,0.17,0.00,VWS V14.01,2013-07-03 06:24:00,
2013-07-03 02:26:00,60.0,59.2,30.18,ENE,68,0.0,0.0,97,0.05,,---,0.17,0.00,VWS V14.01,2013-07-03 06:26:00,
2013-07-03 02:31:00,60.0,59.2,30.18,ENE,68,0.0,0.0,97,0.05,,---,0.17,0.00,VWS V14.01,2013-07-03 06:31:00,
2013-07-03 02:32:00,60.0,59.2,30.18,ENE,68,0.0,0.0,97,0.05,,---,0.17,0.00,VWS V14.01,2013-07-03 06:32:00,
2013-07-03 02:37:00,60.0,59.2,30.18,ENE,68,0.0,0.0,97,0.05,,---,0.17,0.00,VWS V14.01,2013-07-03 06:37:00,
2013-07-03 02:42:00,60.0,59.2,30.17,ENE,68,0.0,0.0,97,0.05,,---,0.17,0.00,VWS V14.01,2013-07-03 06:42:00,
2013-07-03 02:43:00,60.0,59.2,30.18,ENE,68,0.0,0.0,97,0.05,,---,0.17,0.00,VWS V14.01,2013-07-03 06:43:00,
2013-07-03 02:48:00,60.0,59.2,30.18,ENE,68,0.0,0.0,97,0.04,,---,0.17,0.00,VWS V14.01,2013-07-03 06:48:00,
2013-07-03 02:53:00,60.0,59.2,30.18,ENE,68,0.0,0.0,97,0.04,,---,0.17,0.00,VWS V14.01,2013-07-03 06:53:00,
2013-07-03 02:55:00,60.0,59.2,30.18,ENE,68,0.0,0.0,97,0.04,,---,0.17,0.00,VWS V14.01,2013-07-03 06:55:00,
2013-07-03 03:00:00,60.0,59.2,30.18,ENE,68,0.0,0.0,97,0.04,,---,0.17,0.00,VWS V14.01,2013-07-03 07:00:00,
2013-07-03 03:05:00,60.0,59.2,30.18,ENE,68,0.0,0.0,97,0.03,,---,0.17,0.00,VWS V14.01,2013-07-03 07:05:00,
2013-07-03 03:11:00,60.0,59.2,30.18,ENE,68,0.0,0.0,97,0.03,,---,0.17,0.00,VWS V14.01,2013-07-03 07:11:00,
2013-07-03 03:16:00,60.0,59.2,30.18,ENE,68,0.0,0.0,97,0.03,,---,0.17,0.00,VWS V14.01,2013-07-03 07:16:00,
2013-07-03 03:21:00,60.0,59.2,30.18,ENE,68,0.0,0.0,97,0.00,,---,0.17,0.00,VWS V14.01,2013-07-03 07:21:00,
2013-07-03 03:26:00,60.0,59.2,30.18,ENE,68,0.0,0.0,97,0.00,,---,0.17,0.00,VWS V14.01,2013-07-03 07:26:00,
2013-07-03 03:31:00,60.0,59.2,30.18,ENE,68,0.0,0.0,97,0.00,,---,0.17,0.00,VWS V14.01,2013-07-03 07:31:00,
2013-07-03 03:36:00,60.0,59.2,30.18,ENE,68,0.0,0.0,97,0.00,,---,0.17,0.00,VWS V14.01,2013-07-03 07:36:00,
2013-07-03 03:38:00,60.0,59.2,30.18,ENE,68,0.0,0.0,97,0.00,,---,0.17,0.00,VWS V14.01,2013-07-03 07:38:00,
2013-07-03 03:43:00,60.0,59.2,30.18,ENE,68,0.0,0.0,97,0.00,,---,0.17,0.00,VWS V14.01,2013-07-03 07:43:00,
2013-07-03 03:48:00,60.0,59.2,30.18,ENE,68,0.0,0.0,97,0.00,,---,0.17,0.00,VWS V14.01,2013-07-03 07:48:00,
2013-07-03 03:50:00,60.0,59.2,30.18,ENE,68,0.0,0.0,97,0.00,,---,0.17,0.00,VWS V14.01,2013-07-03 07:50:00,
2013-07-03 03:55:00,60.0,59.2,30.18,ENE,68,0.0,0.0,97,0.00,,---,0.17,0.00,VWS V14.01,2013-07-03 07:55:00,
2013-07-03 04:00:00,60.0,59.2,30.18,ENE,68,0.0,0.0,97,0.00,,---,0.17,0.00,VWS V14.01,2013-07-03 08:00:00,
2013-07-03 04:01:00,60.0,59.2,30.18,ENE,68,0.0,0.0,97,0.00,,---,0.17,0.00,VWS V14.01,2013-07-03 08:01:00,
2013-07-03 04:06:00,60.0,59.2,30.18,ENE,68,0.0,0.0,97,0.00,,---,0.17,0.00,VWS V14.01,2013-07-03 08:06:00,
2013-07-03 04:09:00,60.0,59.2,30.18,ENE,68,0.0,0.0,97,0.00,,---,0.17,0.00,VWS V14.01,2013-07-03 08:09:00,
2013-07-03 04:14:00,60.0,59.2,30.18,ENE,68,0.0,0.0,97,0.00,,---,0.17,0.00,VWS V14.01,2013-07-03 08:14:00,
2013-07-03 04:18:00,60.0,59.2,30.18,ENE,68,0.0,0.0,97,0.00,,---,0.17,0.00,VWS V14.01,2013-07-03 08:18:00,
2013-07-03 04:23:00,60.0,59.2,30.17,ENE,68,0.0,0.0,97,0.00,,---,0.17,0.00,VWS V14.01,2013-07-03 08:23:00,
2013-07-03 04:28:00,60.0,59.2,30.17,ENE,68,0.0,0.0,97,0.00,,---,0.17,0.00,VWS V14.01,2013-07-03 08:28:00,
2013-07-03 04:33:00,60.0,59.2,30.17,ENE,68,0.0,0.0,97,0.00,,---,0.17,0.00,VWS V14.01,2013-07-03 08:33:00,
2013-07-03 04:38:00,60.0,59.2,30.17,ENE,68,0.0,0.0,97,0.00,,---,0.17,0.00,VWS V14.01,2013-07-03 08:38:00,
2013-07-03 04:42:00,60.1,59.2,30.17,ENE,68,0.0,0.0,97,0.00,,---,0.17,0.00,VWS V14.01,2013-07-03 08:42:00,
2013-07-03 04:45:00,60.1,59.2,30.17,ENE,68,0.0,0.0,97,0.00,,---,0.17,0.00,VWS V14.01,2013-07-03 08:45:00,
2013-07-03 04:51:00,60.1,59.2,30.17,ENE,68,0.0,0.0,97,0.00,,---,0.17,0.00,VWS V14.01,2013-07-03 08:51:00,
2013-07-03 04:54:00,60.1,59.2,30.17,ENE,68,0.0,0.0,97,0.00,,---,0.17,0.00,VWS V14.01,2013-07-03 08:54:00,
2013-07-03 04:55:00,60.1,59.2,30.17,ENE,68,0.0,0.0,97,0.00,,---,0.17,0.00,VWS V14.01,2013-07-03 08:55:00,
2013-07-03 05:00:00,60.0,59.2,30.18,ENE,68,0.0,0.0,97,0.00,,---,0.17,0.00,VWS V14.01,2013-07-03 09:00:00,
2013-07-03 05:05:00,60.1,59.2,30.17,ENE,68,0.0,0.0,97,0.00,,---,0.17,0.00,VWS V14.01,2013-07-03 09:05:00,
2013-07-03 05:10:00,60.1,59.2,30.17,ENE,68,0.0,0.0,97,0.00,,---,0.17,0.00,VWS V14.01,2013-07-03 09:10:00,
2013-07-03 05:15:00,60.1,59.2,30.17,ENE,68,0.0,0.0,97,0.00,,---,0.17,0.00,VWS V14.01,2013-07-03 09:15:00,
2013-07-03 05:20:00,60.1,59.2,30.17,ENE,68,0.0,0.0,97,0.00,,---,0.17,0.00,VWS V14.01,2013-07-03 09:20:00,
2013-07-03 05:25:00,60.1,59.2,30.17,ENE,68,0.0,0.0,97,0.00,,---,0.17,0.00,VWS V14.01,2013-07-03 09:25:00,
2013-07-03 05:30:00,60.1,59.2,30.17,ENE,68,0.0,0.0,97,0.00,,---,0.17,0.00,VWS V14.01,2013-07-03 09:30:00,
2013-07-03 05:35:00,60.1,59.2,30.17,ENE,68,0.0,0.0,97,0.00,,---,0.17,5.00,VWS V14.01,2013-07-03 09:35:00,
2013-07-03 05:40:00,60.1,59.2,30.17,ENE,68,0.0,0.0,97,0.00,,---,0.17,7.00,VWS V14.01,2013-07-03 09:40:00,
2013-07-03 05:41:00,60.1,59.2,30.17,ENE,68,0.0,0.0,97,0.00,,---,0.17,7.00,VWS V14.01,2013-07-03 09:41:00,
2013-07-03 05:46:00,60.1,59.2,30.17,ENE,68,0.0,0.0,97,0.00,,---,0.17,11.00,VWS V14.01,2013-07-03 09:46:00,
2013-07-03 05:50:00,60.1,59.2,30.17,ENE,68,0.0,0.0,97,0.00,,---,0.17,14.00,VWS V14.01,2013-07-03 09:50:00,
2013-07-03 05:55:00,60.3,59.5,30.18,ENE,68,0.0,0.0,97,0.00,,---,0.17,14.00,VWS V14.01,2013-07-03 09:55:00,
2013-07-03 06:00:00,60.3,59.5,30.18,ENE,68,0.0,0.0,97,0.00,,---,0.17,9.00,VWS V14.01,2013-07-03 10:00:00,
2013-07-03 06:04:00,60.3,59.7,30.18,ENE,68,0.0,0.0,98,0.00,,---,0.17,9.00,VWS V14.01,2013-07-03 10:04:00,
2013-07-03 06:05:00,60.3,59.7,30.18,ENE,68,0.0,0.0,98,0.00,,---,0.17,9.00,VWS V14.01,2013-07-03 10:05:00,
2013-07-03 06:10:00,60.5,59.9,30.18,ENE,68,0.0,0.0,98,0.00,,---,0.17,11.00,VWS V14.01,2013-07-03 10:10:00,
2013-07-03 06:15:00,60.5,59.9,30.18,ENE,68,0.0,0.0,98,0.00,,---,0.17,12.00,VWS V14.01,2013-07-03 10:15:00,
2013-07-03 06:20:00,60.5,59.9,30.18,ENE,68,0.0,0.0,98,0.00,,---,0.17,18.00,VWS V14.01,2013-07-03 10:20:00,
2013-07-03 06:25:00,60.6,60.0,30.19,ENE,68,0.0,0.0,98,0.00,,---,0.17,21.00,VWS V14.01,2013-07-03 10:25:00,
2013-07-03 06:30:00,60.6,60.0,30.19,ENE,68,0.0,0.0,98,0.00,,---,0.17,25.00,VWS V14.01,2013-07-03 10:30:00,
2013-07-03 06:31:00,60.6,60.0,30.19,ENE,68,0.0,0.0,98,0.00,,---,0.17,26.00,VWS V14.01,2013-07-03 10:31:00,
2013-07-03 06:36:00,60.6,60.0,30.19,ENE,68,0.0,0.0,98,0.00,,---,0.17,42.00,VWS V14.01,2013-07-03 10:36:00,
2013-07-03 06:41:00,60.8,60.2,30.19,ENE,68,0.0,0.0,98,0.00,,---,0.17,54.00,VWS V14.01,2013-07-03 10:41:00,
2013-07-03 06:46:00,60.8,60.2,30.19,ENE,68,0.0,0.0,98,0.00,,---,0.17,49.00,VWS V14.01,2013-07-03 10:46:00,
2013-07-03 06:49:00,60.9,60.3,30.19,ENE,68,0.0,0.0,98,0.00,,---,0.17,39.00,VWS V14.01,2013-07-03 10:49:00,
2013-07-03 06:54:00,60.9,60.3,30.19,ENE,68,0.0,0.0,98,0.00,,---,0.17,63.00,VWS V14.01,2013-07-03 10:54:00,
2013-07-03 06:55:00,60.9,60.3,30.19,ENE,68,0.0,0.0,98,0.00,,---,0.17,63.00,VWS V14.01,2013-07-03 10:55:00,
2013-07-03 06:57:00,60.9,60.3,30.19,ENE,68,0.0,0.0,98,0.00,,---,0.17,109.00,VWS V14.01,2013-07-03 10:57:00,
2013-07-03 07:02:00,61.1,60.5,30.19,ENE,68,0.0,0.0,98,0.00,,---,0.17,121.00,VWS V14.01,2013-07-03 11:02:00,
2013-07-03 07:07:00,61.1,60.5,30.19,ENE,68,0.0,0.0,98,0.00,,---,0.17,77.00,VWS V14.01,2013-07-03 11:07:00,
2013-07-03 07:09:00,61.2,60.6,30.19,ENE,68,0.0,0.0,98,0.00,,---,0.17,72.00,VWS V14.01,2013-07-03 11:09:00,
2013-07-03 07:14:00,61.2,60.6,30.20,ENE,68,0.0,0.0,98,0.00,,---,0.17,58.00,VWS V14.01,2013-07-03 11:14:00,
2013-07-03 07:19:00,61.2,60.6,30.20,ENE,68,0.0,0.0,98,0.00,,---,0.17,62.00,VWS V14.01,2013-07-03 11:19:00,
2013-07-03 07:23:00,61.2,60.6,30.20,ENE,68,0.0,0.0,98,0.00,,---,0.17,58.00,VWS V14.01,2013-07-03 11:23:00,
2013-07-03 07:25:00,61.2,60.6,30.20,ENE,68,0.0,0.0,98,0.00,,---,0.17,65.00,VWS V14.01,2013-07-03 11:25:00,
2013-07-03 07:30:00,61.2,60.6,30.20,ENE,68,0.0,0.0,98,0.00,,---,0.17,72.00,VWS V14.01,2013-07-03 11:30:00,
2013-07-03 07:35:00,61.4,60.8,30.20,ENE,68,0.0,0.0,98,0.00,,---,0.17,69.00,VWS V14.01,2013-07-03 11:35:00,
2013-07-03 07:40:00,61.6,61.0,30.20,ENE,68,0.0,0.0,98,0.00,,---,0.17,81.00,VWS V14.01,2013-07-03 11:40:00,
2013-07-03 07:45:00,61.6,61.0,30.20,ENE,68,0.0,0.0,98,0.00,,---,0.17,79.00,VWS V14.01,2013-07-03 11:45:00,
2013-07-03 07:46:00,61.6,61.0,30.20,ENE,68,0.0,0.0,98,0.00,,---,0.17,77.00,VWS V14.01,2013-07-03 11:46:00,
2013-07-03 07:51:00,61.7,61.1,30.20,ENE,68,0.0,0.0,98,0.00,,---,0.17,76.00,VWS V14.01,2013-07-03 11:51:00,
2013-07-03 07:56:00,61.7,61.1,30.20,ENE,68,0.0,0.0,98,0.00,,---,0.17,93.00,VWS V14.01,2013-07-03 11:56:00,
2013-07-03 07:59:00,61.7,61.1,30.20,ENE,68,0.0,0.0,98,0.00,,---,0.17,104.00,VWS V14.01,2013-07-03 11:59:00,
2013-07-03 08:02:00,61.9,61.3,30.20,ENE,68,0.0,0.0,98,0.00,,---,0.17,116.00,VWS V14.01,2013-07-03 12:02:00,
2013-07-03 08:07:00,62.0,61.4,30.20,South,171,0.0,0.0,98,0.00,,---,0.17,114.00,VWS V14.01,2013-07-03 12:07:00,
2013-07-03 08:12:00,62.2,61.6,30.21,South,171,0.0,0.0,98,0.00,,---,0.17,139.00,VWS V14.01,2013-07-03 12:12:00,
2013-07-03 08:16:00,62.3,61.7,30.21,South,171,0.0,0.0,98,0.00,,---,0.17,141.00,VWS V14.01,2013-07-03 12:16:00,
2013-07-03 08:22:00,62.3,61.7,30.21,South,171,0.0,0.0,98,0.00,,---,0.17,132.00,VWS V14.01,2013-07-03 12:22:00,
2013-07-03 08:27:00,62.5,61.9,30.21,South,171,0.0,0.0,98,0.00,,---,0.17,114.00,VWS V14.01,2013-07-03 12:27:00,
2013-07-03 08:32:00,62.5,61.9,30.21,South,171,0.0,0.0,98,0.00,,---,0.17,109.00,VWS V14.01,2013-07-03 12:32:00,
2013-07-03 08:37:00,62.7,62.1,30.21,South,171,0.0,0.0,98,0.00,,---,0.17,111.00,VWS V14.01,2013-07-03 12:37:00,
2013-07-03 08:42:00,62.7,62.1,30.21,South,171,0.0,0.0,98,0.00,,---,0.17,121.00,VWS V14.01,2013-07-03 12:42:00,
2013-07-03 08:46:00,62.7,62.1,30.20,South,171,0.0,0.0,98,0.00,,---,0.17,176.00,VWS V14.01,2013-07-03 12:46:00,
2013-07-03 08:51:00,62.8,62.2,30.20,South,171,0.0,0.0,98,0.00,,---,0.17,195.00,VWS V14.01,2013-07-03 12:51:00,
2013-07-03 08:56:00,63.0,62.4,30.20,South,171,0.0,0.0,98,0.00,,---,0.17,243.00,VWS V14.01,2013-07-03 12:56:00,
2013-07-03 09:01:00,63.3,62.7,30.20,South,171,0.0,0.0,98,0.00,,---,0.17,185.00,VWS V14.01,2013-07-03 13:01:00,
2013-07-03 09:06:00,63.6,63.0,30.21,South,171,0.0,0.0,98,0.00,,---,0.17,239.00,VWS V14.01,2013-07-03 13:06:00,
2013-07-03 09:11:00,63.8,63.2,30.20,South,171,0.0,0.0,98,0.00,,---,0.17,234.00,VWS V14.01,2013-07-03 13:11:00,
2013-07-03 09:16:00,64.3,63.7,30.20,South,171,0.0,0.0,98,0.00,,---,0.17,320.00,VWS V14.01,2013-07-03 13:16:00,
2013-07-03 09:21:00,64.4,63.8,30.20,South,171,0.0,2.0,98,0.00,,---,0.17,385.00,VWS V14.01,2013-07-03 13:21:00,
2013-07-03 09:25:00,64.8,64.2,30.20,South,171,0.0,2.0,98,0.00,,---,0.17,406.00,VWS V14.01,2013-07-03 13:25:00,
2013-07-03 09:30:00,65.1,64.5,30.20,South,171,0.0,2.0,98,0.00,,---,0.17,450.00,VWS V14.01,2013-07-03 13:30:00,
2013-07-03 09:35:00,65.6,65.0,30.20,South,171,0.0,0.0,98,0.00,,---,0.17,638.00,VWS V14.01,2013-07-03 13:35:00,
2013-07-03 09:37:00,65.9,65.3,30.20,South,171,0.0,0.0,98,0.00,,---,0.17,403.00,VWS V14.01,2013-07-03 13:37:00,
2013-07-03 09:42:00,66.2,65.6,30.20,South,171,0.0,1.0,98,0.00,,---,0.17,353.00,VWS V14.01,2013-07-03 13:42:00,
2013-07-03 09:47:00,66.7,66.1,30.20,South,171,0.0,0.0,98,0.00,,---,0.17,390.00,VWS V14.01,2013-07-03 13:47:00,
2013-07-03 09:52:00,66.9,66.3,30.20,South,171,0.0,0.0,98,0.00,,---,0.17,381.00,VWS V14.01,2013-07-03 13:52:00,
2013-07-03 09:58:00,67.2,66.6,30.20,South,171,0.0,0.0,98,0.00,,---,0.17,410.00,VWS V14.01,2013-07-03 13:58:00,
2013-07-03 10:03:00,67.5,66.9,30.20,South,171,0.0,0.0,98,0.00,,---,0.17,469.00,VWS V14.01,2013-07-03 14:03:00,
2013-07-03 10:06:00,67.7,67.1,30.20,South,171,0.0,0.0,98,0.00,,---,0.17,446.00,VWS V14.01,2013-07-03 14:06:00,
2013-07-03 10:10:00,68.0,67.4,30.20,South,171,0.0,0.0,98,0.00,,---,0.17,703.00,VWS V14.01,2013-07-03 14:10:00,
2013-07-03 10:15:00,68.5,67.9,30.20,South,171,0.0,0.0,98,0.00,,---,0.17,610.00,VWS V14.01,2013-07-03 14:15:00,
2013-07-03 10:17:00,68.7,68.1,30.20,South,171,0.0,0.0,98,0.00,,---,0.17,424.00,VWS V14.01,2013-07-03 14:17:00,
2013-07-03 10:22:00,69.2,68.6,30.21,South,171,0.0,0.0,98,0.00,,---,0.17,527.00,VWS V14.01,2013-07-03 14:22:00,
2013-07-03 10:27:00,69.5,68.6,30.20,South,171,0.0,0.0,97,0.00,,---,0.17,867.00,VWS V14.01,2013-07-03 14:27:00,
2013-07-03 10:30:00,70.2,69.3,30.21,South,171,0.0,0.0,97,0.00,,---,0.17,851.00,VWS V14.01,2013-07-03 14:30:00,
2013-07-03 10:35:00,70.9,70.0,30.20,South,171,0.0,0.0,97,0.00,,---,0.17,842.00,VWS V14.01,2013-07-03 14:35:00,
2013-07-03 10:38:00,71.1,70.2,30.20,South,171,0.0,0.0,97,0.00,,---,0.17,921.00,VWS V14.01,2013-07-03 14:38:00,
2013-07-03 10:41:00,71.6,70.7,30.20,South,171,0.0,0.0,97,0.00,,---,0.17,754.00,VWS V14.01,2013-07-03 14:41:00,
2013-07-03 10:46:00,72.3,71.1,30.20,North,10,0.0,2.0,96,0.00,,---,0.17,851.00,VWS V14.01,2013-07-03 14:46:00,
2013-07-03 10:51:00,72.8,71.3,30.21,North,10,0.0,2.0,95,0.00,,---,0.17,784.00,VWS V14.01,2013-07-03 14:51:00,
2013-07-03 10:56:00,73.3,71.5,30.20,NNE,22,0.0,2.0,94,0.00,,---,0.17,874.00,VWS V14.01,2013-07-03 14:56:00,
2013-07-03 10:58:00,73.6,71.8,30.20,ENE,67,0.0,2.0,94,0.00,,---,0.17,872.00,VWS V14.01,2013-07-03 14:58:00,
2013-07-03 11:03:00,74.3,72.2,30.20,ENE,66,0.0,0.0,93,0.00,,---,0.17,886.00,VWS V14.01,2013-07-03 15:03:00,
2013-07-03 11:08:00,74.9,71.8,30.20,NE,52,0.0,0.0,90,0.00,,---,0.17,907.00,VWS V14.01,2013-07-03 15:08:00,
2013-07-03 11:13:00,75.6,71.5,30.20,SW,224,2.0,2.0,87,0.00,,---,0.17,932.00,VWS V14.01,2013-07-03 15:13:00,
2013-07-03 11:15:00,75.7,70.9,30.20,SSW,211,0.0,2.0,85,0.00,,---,0.17,967.00,VWS V14.01,2013-07-03 15:15:00,
2013-07-03 11:20:00,76.4,71.2,30.20,South,170,0.0,0.0,84,0.00,,---,0.17,628.00,VWS V14.01,2013-07-03 15:20:00,
2013-07-03 11:25:00,77.0,70.7,30.20,SE,131,0.0,0.0,81,0.00,,---,0.17,1032.00,VWS V14.01,2013-07-03 15:25:00,
2013-07-03 11:28:00,77.3,70.7,30.19,SE,130,0.0,0.0,80,0.00,,---,0.17,596.00,VWS V14.01,2013-07-03 15:28:00,
2013-07-03 11:33:00,78.1,71.1,30.19,SSE,155,3.0,3.0,79,0.00,,---,0.17,531.00,VWS V14.01,2013-07-03 15:33:00,
2013-07-03 11:39:00,78.8,71.4,30.19,NW,309,0.0,3.0,78,0.00,,---,0.17,882.00,VWS V14.01,2013-07-03 15:39:00,
2013-07-03 11:41:00,79.0,71.2,30.19,NW,309,0.0,3.0,77,0.00,,---,0.17,1004.00,VWS V14.01,2013-07-03 15:41:00,
2013-07-03 11:46:00,79.7,71.9,30.19,North,360,0.0,3.0,77,0.00,,---,0.17,510.00,VWS V14.01,2013-07-03 15:46:00,
2013-07-03 11:51:00,80.3,72.4,30.19,North,360,0.0,0.0,77,0.00,,---,0.17,1048.00,VWS V14.01,2013-07-03 15:51:00,
2013-07-03 11:52:00,80.5,72.6,30.19,North,11,0.0,1.0,77,0.00,,---,0.17,1044.00,VWS V14.01,2013-07-03 15:52:00,
2013-07-03 11:57:00,81.0,73.1,30.19,North,11,0.0,1.0,77,0.00,,---,0.17,1155.00,VWS V14.01,2013-07-03 15:57:00,
2013-07-03 12:02:00,81.4,72.7,30.19,North,11,0.0,0.0,75,0.00,,---,0.17,388.00,VWS V14.01,2013-07-03 16:02:00,
2013-07-03 12:07:00,81.4,71.5,30.19,NNE,13,0.0,0.0,72,0.00,,---,0.17,591.00,VWS V14.01,2013-07-03 16:07:00,
2013-07-03 12:12:00,81.6,71.7,30.19,NNW,345,0.0,0.0,72,0.00,,---,0.17,522.00,VWS V14.01,2013-07-03 16:12:00,
2013-07-03 12:17:00,81.6,71.3,30.19,ESE,120,0.0,0.0,71,0.00,,---,0.17,606.00,VWS V14.01,2013-07-03 16:17:00,
2013-07-03 12:22:00,81.6,70.9,30.19,East,101,0.0,3.0,70,0.00,,---,0.17,552.00,VWS V14.01,2013-07-03 16:22:00,
2013-07-03 12:28:00,81.6,70.9,30.18,East,101,0.0,3.0,70,0.00,,---,0.17,441.00,VWS V14.01,2013-07-03 16:28:00,
2013-07-03 12:33:00,81.8,71.9,30.18,East,101,0.0,0.0,72,0.00,,---,0.17,628.00,VWS V14.01,2013-07-03 16:33:00,
2013-07-03 12:38:00,82.0,72.1,30.18,East,101,0.0,0.0,72,0.00,,---,0.17,854.00,VWS V14.01,2013-07-03 16:38:00,
2013-07-03 12:43:00,82.0,71.3,30.18,NNW,346,0.0,1.0,70,0.00,,---,0.17,575.00,VWS V14.01,2013-07-03 16:43:00,
2013-07-03 12:48:00,82.2,71.4,30.18,NNW,346,0.0,0.0,70,0.00,,---,0.17,575.00,VWS V14.01,2013-07-03 16:48:00,
2013-07-03 12:53:00,82.4,73.3,30.18,NNW,347,0.0,0.0,74,0.00,,---,0.17,722.00,VWS V14.01,2013-07-03 16:53:00,
2013-07-03 12:58:00,82.2,71.0,30.18,North,5,0.0,0.0,69,0.00,,---,0.17,255.00,VWS V14.01,2013-07-03 16:58:00,
2013-07-03 13:04:00,82.4,72.1,30.17,NE,40,0.0,0.0,71,0.00,,---,0.17,334.00,VWS V14.01,2013-07-03 17:04:00,
2013-07-03 13:09:00,82.6,72.2,30.17,ESE,107,2.0,2.0,71,0.00,,---,0.17,691.00,VWS V14.01,2013-07-03 17:09:00,
2013-07-03 13:14:00,82.6,71.8,30.17,SE,129,0.0,3.0,70,0.00,,---,0.17,494.00,VWS V14.01,2013-07-03 17:14:00,
2013-07-03 13:19:00,83.0,73.1,30.17,SSW,212,0.0,1.0,72,0.00,,---,0.17,376.00,VWS V14.01,2013-07-03 17:19:00,
2013-07-03 13:24:00,83.2,72.8,30.17,East,80,0.0,3.0,71,0.00,,---,0.17,294.00,VWS V14.01,2013-07-03 17:24:00,
2013-07-03 13:29:00,83.4,71.7,30.17,SW,236,0.0,3.0,68,0.00,,---,0.17,1199.00,VWS V14.01,2013-07-03 17:29:00,
2013-07-03 13:34:00,83.2,72.0,30.17,SSE,164,0.0,2.0,69,0.00,,---,0.17,200.00,VWS V14.01,2013-07-03 17:34:00,
2013-07-03 13:39:00,83.0,72.2,30.17,SW,225,0.0,2.0,70,0.00,,---,0.17,255.00,VWS V14.01,2013-07-03 17:39:00,
2013-07-03 13:44:00,82.4,71.6,30.17,SW,219,0.0,2.0,70,0.00,,---,0.17,197.00,VWS V14.01,2013-07-03 17:44:00,
2013-07-03 13:49:00,82.4,72.1,30.17,SW,219,0.0,0.0,71,0.00,,---,0.17,1051.00,VWS V14.01,2013-07-03 17:49:00,
2013-07-03 13:54:00,82.6,73.1,30.16,ESE,105,2.0,2.0,73,0.00,,---,0.17,1018.00,VWS V14.01,2013-07-03 17:54:00,
2013-07-03 14:00:00,83.0,73.1,30.16,South,171,0.0,3.0,72,0.00,,---,0.17,1079.00,VWS V14.01,2013-07-03 18:00:00,
2013-07-03 14:05:00,83.2,71.1,30.16,SW,219,2.0,3.0,67,0.00,,---,0.17,366.00,VWS V14.01,2013-07-03 18:05:00,
2013-07-03 14:10:00,83.6,73.2,30.16,SSE,147,0.0,4.0,71,0.00,,---,0.17,1016.00,VWS V14.01,2013-07-03 18:10:00,
2013-07-03 14:15:00,83.9,71.8,30.16,SE,145,0.0,4.0,67,0.00,,---,0.17,993.00,VWS V14.01,2013-07-03 18:15:00,
2013-07-03 14:21:00,84.3,72.6,30.16,SE,126,0.0,0.0,68,0.00,,---,0.17,954.00,VWS V14.01,2013-07-03 18:21:00,
2013-07-03 14:26:00,84.5,72.3,30.16,SW,231,0.0,0.0,67,0.00,,---,0.17,946.00,VWS V14.01,2013-07-03 18:26:00,
2013-07-03 14:31:00,84.7,71.2,30.16,NE,38,0.0,1.0,64,0.00,,---,0.17,942.00,VWS V14.01,2013-07-03 18:31:00,
2013-07-03 14:36:00,84.9,72.3,30.16,SE,128,0.0,2.0,66,0.00,,---,0.17,928.00,VWS V14.01,2013-07-03 18:36:00,
2013-07-03 14:41:00,85.1,72.5,30.16,SE,124,1.0,3.0,66,0.00,,---,0.17,907.00,VWS V14.01,2013-07-03 18:41:00,
2013-07-03 14:46:00,85.3,72.2,30.16,SW,228,0.0,7.0,65,0.00,,---,0.17,916.00,VWS V14.01,2013-07-03 18:46:00,
2013-07-03 14:51:00,85.5,72.4,30.16,SSE,148,0.0,3.0,65,0.00,,---,0.17,925.00,VWS V14.01,2013-07-03 18:51:00,
2013-07-03 14:56:00,85.5,72.4,30.16,ESE,104,0.0,5.0,65,0.00,,---,0.17,895.00,VWS V14.01,2013-07-03 18:56:00,
2013-07-03 15:01:00,85.5,72.4,30.15,SE,134,0.0,5.0,65,0.00,,---,0.17,851.00,VWS V14.01,2013-07-03 19:01:00,
2013-07-03 15:06:00,85.7,72.1,30.15,SE,134,0.0,3.0,64,0.00,,---,0.17,861.00,VWS V14.01,2013-07-03 19:06:00,
2013-07-03 15:11:00,85.7,72.1,30.15,East,96,0.0,6.0,64,0.00,,---,0.17,865.00,VWS V14.01,2013-07-03 19:11:00,
2013-07-03 15:16:00,85.5,71.5,30.14,SSW,208,0.0,6.0,63,0.00,,---,0.17,846.00,VWS V14.01,2013-07-03 19:16:00,
2013-07-03 15:21:00,85.5,71.0,30.14,SSW,192,0.0,3.0,62,0.00,,---,0.17,823.00,VWS V14.01,2013-07-03 19:21:00,
2013-07-03 15:26:00,85.7,72.1,30.14,South,191,0.0,3.0,64,0.00,,---,0.17,833.00,VWS V14.01,2013-07-03 19:26:00,
2013-07-03 15:31:00,86.1,71.6,30.14,ESE,123,0.0,3.0,62,0.00,,---,0.17,816.00,VWS V14.01,2013-07-03 19:31:00,
2013-07-03 15:36:00,86.1,71.1,30.14,SSE,165,0.0,5.0,61,0.00,,---,0.17,788.00,VWS V14.01,2013-07-03 19:36:00,
2013-07-03 15:41:00,86.1,71.1,30.14,WSW,246,0.0,5.0,61,0.00,,---,0.17,812.00,VWS V14.01,2013-07-03 19:41:00,
2013-07-03 15:46:00,86.3,71.8,30.14,SSE,166,0.0,5.0,62,0.00,,---,0.17,824.00,VWS V14.01,2013-07-03 19:46:00,
2013-07-03 15:51:00,86.6,70.6,30.14,WSW,248,0.0,3.0,59,0.00,,---,0.17,786.00,VWS V14.01,2013-07-03 19:51:00,
2013-07-03 15:56:00,86.6,70.1,30.14,South,190,1.0,4.0,58,0.00,,---,0.17,763.00,VWS V14.01,2013-07-03 19:56:00,
2013-07-03 16:01:00,86.8,72.7,30.14,South,190,0.0,4.0,63,0.00,,---,0.17,796.00,VWS V14.01,2013-07-03 20:01:00,
2013-07-03 16:07:00,86.8,72.7,30.14,South,190,0.0,0.0,63,0.00,,---,0.17,237.00,VWS V14.01,2013-07-03 20:07:00,
2013-07-03 16:12:00,86.6,72.0,30.14,South,189,0.0,0.0,62,0.00,,---,0.17,738.00,VWS V14.01,2013-07-03 20:12:00,
2013-07-03 16:17:00,86.6,71.1,30.14,South,189,0.0,0.0,60,0.00,,---,0.17,724.00,VWS V14.01,2013-07-03 20:17:00,
2013-07-03 16:22:00,86.1,69.6,30.14,SSE,159,0.0,1.0,58,0.00,,---,0.17,715.00,VWS V14.01,2013-07-03 20:22:00,
2013-07-03 16:27:00,86.1,69.6,30.14,ESE,113,0.0,5.0,58,0.00,,---,0.17,195.00,VWS V14.01,2013-07-03 20:27:00,
2013-07-03 16:32:00,85.7,71.2,30.14,SW,227,0.0,0.0,62,0.00,,---,0.17,274.00,VWS V14.01,2013-07-03 20:32:00,
2013-07-03 16:37:00,85.5,71.0,30.14,South,189,0.0,0.0,62,0.00,,---,0.17,134.00,VWS V14.01,2013-07-03 20:37:00,
2013-07-03 16:42:00,85.1,70.2,30.14,SE,146,0.0,1.0,61,0.00,,---,0.17,318.00,VWS V14.01,2013-07-03 20:42:00,
2013-07-03 16:47:00,84.7,70.7,30.13,South,175,3.0,3.0,63,0.00,,---,0.17,100.00,VWS V14.01,2013-07-03 20:47:00,
2013-07-03 16:52:00,84.3,69.9,30.13,SW,236,0.0,3.0,62,0.00,,---,0.17,91.00,VWS V14.01,2013-07-03 20:52:00,
2013-07-03 16:57:00,84.1,70.6,30.13,South,169,0.0,3.0,64,0.00,,---,0.17,67.00,VWS V14.01,2013-07-03 20:57:00,
2013-07-03 17:02:00,83.9,70.9,30.13,South,169,0.0,0.0,65,0.00,,---,0.17,84.00,VWS V14.01,2013-07-03 21:02:00,
2013-07-03 17:07:00,83.7,70.7,30.13,South,182,0.0,0.0,65,0.00,,---,0.17,107.00,VWS V14.01,2013-07-03 21:07:00,
2013-07-03 17:12:00,83.6,71.5,30.13,SSW,210,0.0,3.0,67,0.00,,---,0.17,70.00,VWS V14.01,2013-07-03 21:12:00,
2013-07-03 17:17:00,83.4,70.9,30.12,South,177,0.0,0.0,66,0.00,,---,0.17,51.00,VWS V14.01,2013-07-03 21:17:00,
2013-07-03 17:22:00,83.2,70.2,30.12,South,182,0.0,0.0,65,0.00,,---,0.17,49.00,VWS V14.01,2013-07-03 21:22:00,
2013-07-03 17:28:00,83.0,70.0,30.12,SE,137,0.0,0.0,65,0.00,,---,0.17,49.00,VWS V14.01,2013-07-03 21:28:00,
2013-07-03 17:33:00,83.0,69.6,30.12,South,177,0.0,0.0,64,0.00,,---,0.17,47.00,VWS V14.01,2013-07-03 21:33:00,
2013-07-03 17:38:00,82.8,69.4,30.12,SW,233,0.0,0.0,64,0.00,,---,0.17,86.00,VWS V14.01,2013-07-03 21:38:00,
2013-07-03 17:43:00,82.8,70.7,30.12,SW,233,0.0,0.0,67,0.00,,---,0.17,269.00,VWS V14.01,2013-07-03 21:43:00,
2013-07-03 17:48:00,82.6,70.1,30.11,SW,216,0.0,0.0,66,0.00,,---,0.17,44.00,VWS V14.01,2013-07-03 21:48:00,
2013-07-03 17:53:00,82.6,69.2,30.11,SE,138,0.0,2.0,64,0.00,,---,0.17,46.00,VWS V14.01,2013-07-03 21:53:00,
2013-07-03 17:58:00,82.6,69.7,30.11,SE,138,0.0,2.0,65,0.00,,---,0.17,44.00,VWS V14.01,2013-07-03 21:58:00,
2013-07-03 18:03:00,82.4,69.5,30.11,SSW,211,0.0,0.0,65,0.00,,---,0.17,37.00,VWS V14.01,2013-07-03 22:03:00,
2013-07-03 18:08:00,82.2,69.7,30.11,SSW,210,0.0,3.0,66,0.00,,---,0.17,35.00,VWS V14.01,2013-07-03 22:08:00,
2013-07-03 18:13:00,82.2,70.2,30.11,SW,221,0.0,3.0,67,0.00,,---,0.17,37.00,VWS V14.01,2013-07-03 22:13:00,
2013-07-03 18:18:00,82.0,70.0,30.11,SW,221,0.0,0.0,67,0.00,,---,0.17,39.00,VWS V14.01,2013-07-03 22:18:00,
2013-07-03 18:24:00,81.8,69.8,30.11,SW,216,0.0,0.0,67,0.00,,---,0.17,53.00,VWS V14.01,2013-07-03 22:24:00,
2013-07-03 18:28:00,81.8,70.2,30.11,SW,216,0.0,0.0,68,0.00,,---,0.17,33.00,VWS V14.01,2013-07-03 22:28:00,
2013-07-03 18:33:00,81.6,70.0,30.11,ESE,123,0.0,3.0,68,0.00,,---,0.17,30.00,VWS V14.01,2013-07-03 22:33:00,
2013-07-03 18:39:00,81.4,70.3,30.11,SSW,194,0.0,3.0,69,0.00,,---,0.17,21.00,VWS V14.01,2013-07-03 22:39:00,
2013-07-03 18:44:00,81.4,70.7,30.11,SSW,194,0.0,3.0,70,0.00,,---,0.17,26.00,VWS V14.01,2013-07-03 22:44:00,
2013-07-03 18:49:00,81.2,70.5,30.11,SSW,194,0.0,0.0,70,0.00,,---,0.17,26.00,VWS V14.01,2013-07-03 22:49:00,
2013-07-03 18:54:00,81.0,70.3,30.11,SSW,192,0.0,0.0,70,0.00,,---,0.17,33.00,VWS V14.01,2013-07-03 22:54:00,
2013-07-03 18:59:00,81.0,71.1,30.11,SSW,192,0.0,0.0,72,0.00,,---,0.17,25.00,VWS V14.01,2013-07-03 22:59:00,
2013-07-03 19:04:00,80.8,70.5,30.11,SSW,192,0.0,0.0,71,0.00,,---,0.17,23.00,VWS V14.01,2013-07-03 23:04:00,
2013-07-03 19:09:00,80.7,70.0,30.11,SSW,192,0.0,0.0,70,0.00,,---,0.17,21.00,VWS V14.01,2013-07-03 23:09:00,
2013-07-03 19:14:00,80.5,70.2,30.11,SSW,194,0.0,0.0,71,0.00,,---,0.17,19.00,VWS V14.01,2013-07-03 23:14:00,
2013-07-03 19:19:00,80.3,69.6,30.11,SSW,194,0.0,0.0,70,0.00,,---,0.17,30.00,VWS V14.01,2013-07-03 23:19:00,
2013-07-03 19:24:00,80.3,70.1,30.11,SSW,194,0.0,0.0,71,0.00,,---,0.17,19.00,VWS V14.01,2013-07-03 23:24:00,
2013-07-03 19:29:00,80.1,69.9,30.11,SSW,194,0.0,0.0,71,0.00,,---,0.17,16.00,VWS V14.01,2013-07-03 23:29:00,
2013-07-03 19:34:00,80.1,70.3,30.11,South,180,0.0,1.0,72,0.00,,---,0.17,16.00,VWS V14.01,2013-07-03 23:34:00,
2013-07-03 19:39:00,79.9,69.7,30.11,South,180,0.0,1.0,71,0.00,,---,0.17,14.00,VWS V14.01,2013-07-03 23:39:00,
2013-07-03 19:44:00,79.7,69.5,30.12,South,180,0.0,1.0,71,0.00,,---,0.17,12.00,VWS V14.01,2013-07-03 23:44:00,
2013-07-03 19:50:00,79.5,69.7,30.12,South,180,0.0,0.0,72,0.00,,---,0.17,12.00,VWS V14.01,2013-07-03 23:50:00,
2013-07-03 19:55:00,79.4,69.2,30.12,South,180,0.0,0.0,71,0.00,,---,0.17,11.00,VWS V14.01,2013-07-03 23:55:00,
2013-07-03 20:00:00,79.2,69.4,30.13,South,180,0.0,0.0,72,0.00,,---,0.17,9.00,VWS V14.01,2013-07-04 00:00:00,
2013-07-03 20:05:00,79.0,69.2,30.13,South,180,0.0,0.0,72,0.00,,---,0.17,9.00,VWS V14.01,2013-07-04 00:05:00,
2013-07-03 20:10:00,78.8,69.0,30.13,South,180,0.0,0.0,72,0.00,,---,0.17,5.00,VWS V14.01,2013-07-04 00:10:00,
2013-07-03 20:15:00,78.6,69.2,30.14,South,180,0.0,0.0,73,0.00,,---,0.17,0.00,VWS V14.01,2013-07-04 00:15:00,
2013-07-03 20:20:00,78.4,69.4,30.13,South,180,0.0,0.0,74,0.00,,---,0.17,0.00,VWS V14.01,2013-07-04 00:20:00,
2013-07-03 20:25:00,78.1,69.5,30.14,South,180,0.0,0.0,75,0.00,,---,0.17,0.00,VWS V14.01,2013-07-04 00:25:00,
2013-07-03 20:30:00,77.9,69.7,30.14,South,180,0.0,0.0,76,0.00,,---,0.17,0.00,VWS V14.01,2013-07-04 00:30:00,
2013-07-03 20:35:00,77.5,69.3,30.14,South,180,0.0,0.0,76,0.00,,---,0.17,0.00,VWS V14.01,2013-07-04 00:35:00,
2013-07-03 20:40:00,77.3,69.5,30.14,South,180,0.0,0.0,77,0.00,,---,0.17,0.00,VWS V14.01,2013-07-04 00:40:00,
2013-07-03 20:45:00,77.0,69.2,30.14,South,180,0.0,0.0,77,0.00,,---,0.17,0.00,VWS V14.01,2013-07-04 00:45:00,
2013-07-03 20:50:00,76.8,69.4,30.14,South,180,0.0,0.0,78,0.00,,---,0.17,0.00,VWS V14.01,2013-07-04 00:50:00,
2013-07-03 20:56:00,76.4,69.4,30.15,South,180,0.0,2.0,79,0.00,,---,0.17,0.00,VWS V14.01,2013-07-04 00:56:00,
2013-07-03 21:01:00,76.3,69.3,30.15,South,180,0.0,2.0,79,0.00,,---,0.17,0.00,VWS V14.01,2013-07-04 01:01:00,
2013-07-03 21:06:00,76.1,69.5,30.15,South,180,0.0,0.0,80,0.00,,---,0.17,0.00,VWS V14.01,2013-07-04 01:06:00,
2013-07-03 21:11:00,75.9,69.3,30.15,South,180,0.0,0.0,80,0.00,,---,0.17,0.00,VWS V14.01,2013-07-04 01:11:00,
2013-07-03 21:16:00,75.7,69.5,30.16,South,180,0.0,0.0,81,0.00,,---,0.17,0.00,VWS V14.01,2013-07-04 01:16:00,
2013-07-03 21:21:00,75.6,69.4,30.16,South,180,0.0,0.0,81,0.00,,---,0.17,0.00,VWS V14.01,2013-07-04 01:21:00,
2013-07-03 21:26:00,75.4,69.5,30.16,South,180,0.0,0.0,82,0.00,,---,0.17,0.00,VWS V14.01,2013-07-04 01:26:00,
2013-07-03 21:31:00,75.4,69.5,30.15,South,180,0.0,0.0,82,0.00,,---,0.17,0.00,VWS V14.01,2013-07-04 01:31:00,
2013-07-03 21:36:00,75.2,69.3,30.16,South,180,0.0,0.0,82,0.00,,---,0.17,0.00,VWS V14.01,2013-07-04 01:36:00,
2013-07-03 21:41:00,75.0,69.5,30.16,South,180,0.0,0.0,83,0.00,,---,0.17,0.00,VWS V14.01,2013-07-04 01:41:00,
2013-07-03 21:47:00,74.9,69.4,30.16,South,180,0.0,0.0,83,0.00,,---,0.17,0.00,VWS V14.01,2013-07-04 01:47:00,
2013-07-03 21:52:00,74.9,69.4,30.16,South,180,0.0,0.0,83,0.00,,---,0.17,0.00,VWS V14.01,2013-07-04 01:52:00,
2013-07-03 21:57:00,74.7,69.6,30.16,South,180,0.0,0.0,84,0.00,,---,0.17,0.00,VWS V14.01,2013-07-04 01:57:00,
2013-07-03 22:02:00,74.3,69.2,30.16,South,180,0.0,0.0,84,0.00,,---,0.17,0.00,VWS V14.01,2013-07-04 02:02:00,
2013-07-03 22:07:00,74.2,69.4,30.16,South,180,0.0,0.0,85,0.00,,---,0.17,0.00,VWS V14.01,2013-07-04 02:07:00,
2013-07-03 22:12:00,74.0,69.2,30.16,South,180,0.0,0.0,85,0.00,,---,0.17,0.00,VWS V14.01,2013-07-04 02:12:00,
2013-07-03 22:17:00,73.8,69.3,30.16,South,180,0.0,0.0,86,0.00,,---,0.17,0.00,VWS V14.01,2013-07-04 02:17:00,
2013-07-03 22:22:00,73.6,69.2,30.16,South,180,0.0,0.0,86,0.00,,---,0.17,0.00,VWS V14.01,2013-07-04 02:22:00,
2013-07-03 22:27:00,73.5,69.1,30.16,South,180,0.0,0.0,86,0.00,,---,0.17,0.00,VWS V14.01,2013-07-04 02:27:00,
2013-07-03 22:32:00,73.3,69.2,30.16,South,180,0.0,0.0,87,0.00,,---,0.17,0.00,VWS V14.01,2013-07-04 02:32:00,
2013-07-03 22:37:00,73.3,69.2,30.16,South,180,0.0,0.0,87,0.00,,---,0.17,0.00,VWS V14.01,2013-07-04 02:37:00,
2013-07-03 22:42:00,73.1,69.0,30.16,South,180,0.0,0.0,87,0.00,,---,0.17,0.00,VWS V14.01,2013-07-04 02:42:00,
2013-07-03 22:47:00,73.1,69.0,30.16,South,180,0.0,0.0,87,0.00,,---,0.17,0.00,VWS V14.01,2013-07-04 02:47:00,
2013-07-03 22:52:00,73.1,69.0,30.16,South,180,0.0,0.0,87,0.00,,---,0.17,0.00,VWS V14.01,2013-07-04 02:52:00,
2013-07-03 22:58:00,73.1,69.3,30.16,South,180,0.0,0.0,88,0.00,,---,0.17,0.00,VWS V14.01,2013-07-04 02:58:00,
2013-07-03 23:03:00,73.1,69.3,30.16,South,180,0.0,0.0,88,0.00,,---,0.17,0.00,VWS V14.01,2013-07-04 03:03:00,
2013-07-03 23:08:00,73.1,69.3,30.16,South,180,0.0,0.0,88,0.00,,---,0.17,0.00,VWS V14.01,2013-07-04 03:08:00,
2013-07-03 23:13:00,72.9,69.1,30.15,South,180,0.0,0.0,88,0.00,,---,0.17,0.00,VWS V14.01,2013-07-04 03:13:00,
2013-07-03 23:18:00,72.9,69.1,30.16,South,180,0.0,0.0,88,0.00,,---,0.17,0.00,VWS V14.01,2013-07-04 03:18:00,
2013-07-03 23:23:00,72.8,69.0,30.16,South,180,0.0,0.0,88,0.00,,---,0.17,0.00,VWS V14.01,2013-07-04 03:23:00,
2013-07-03 23:28:00,72.8,69.0,30.16,South,180,0.0,0.0,88,0.00,,---,0.17,0.00,VWS V14.01,2013-07-04 03:28:00,
2013-07-03 23:33:00,72.8,69.0,30.16,South,180,0.0,0.0,88,0.00,,---,0.17,0.00,VWS V14.01,2013-07-04 03:33:00,
2013-07-03 23:39:00,72.6,68.8,30.16,South,180,0.0,0.0,88,0.00,,---,0.17,0.00,VWS V14.01,2013-07-04 03:39:00,
2013-07-03 23:44:00,72.6,68.8,30.16,South,180,0.0,0.0,88,0.00,,---,0.17,0.00,VWS V14.01,2013-07-04 03:44:00,
2013-07-03 23:49:00,72.4,68.7,30.16,South,180,0.0,0.0,88,0.00,,---,0.17,0.00,VWS V14.01,2013-07-04 03:49:00,
2013-07-03 23:54:00,72.4,68.7,30.16,South,180,0.0,0.0,88,0.00,,---,0.17,0.00,VWS V14.01,2013-07-04 03:54:00,
2013-07-03 23:59:00,72.4,68.7,30.16,South,180,0.0,0.0,88,0.00,,---,0.17,0.00,VWS V14.01,2013-07-04 03:59:00,